Weather in Nara

Japan     34°41′17″N   135°49′17″E
temp.,
°C
wind,
m/s
gust,
m/s
humid.,
%
clouds,
%
prec.,
mm/h
press.,
hPa
HPBL,
m
6 may, thu
thu600:00+15n129986 0.4 101673
03:00+14wnw119758 0.4 101727
06:00+14w119349 0.0 101969
09:00+18wnw126698 0.0 1019598
12:00+23w123862 0.0 10181158
15:00+24wsw223070 0.0 10171339
18:00+21wsw224593 0.0 101796
21:00+18nw1153100 0.0 101913
7 may, fri
fri700:00+16nne115977 0.0 101811
03:00+14e216499 0.0 101622
06:00+14ene1276100 0.0 1016106
09:00+15ene1280100 0.0 1015153
12:00+16ne1485100 0.2 1013390
15:00+14ssw1295100 7.6 1011203
18:00+14nnw1194100 6.4 1010215
21:00+13se1294100 6.8 1010162
8 may, sat
sat800:00+13sw1496100 0.0 1011317
03:00+13sw2796100 0.0 1011476
06:00+14ssw2794100 0.0 1011556
09:00+16wsw3482100 0.0 1012654
12:00+19wsw2461100 0.0 1010780
15:00+19wsw2456100 0.0 1008619
18:00+17wsw1168100 0.0 100860
21:00+16nne1181100 0.0 100934
9 may, sun
sun900:00+15s0184100 0.0 100919
03:00+14se118862 0.0 100816
06:00+14ese118887 0.0 100924
09:00+19wsw486839 0.1 10101117
12:00+23wsw68451 0.1 10092103
15:00+24nw563862 0.1 10092001
18:00+18n47430 0.0 1011732
21:00+15ne12513 0.0 101365
10 may, mon
mon1000:00+13ene12620 0.0 101454
03:00+12e11615 0.0 101434
06:00+12e11566 0.0 101453
09:00+19e223314 0.0 1014373
12:00+25wsw12215 0.0 1013978
15:00+25wsw343094 0.0 10121118
18:00+22wsw1155100 0.0 1012232
21:00+19e1268100 0.0 101240